Regional Weather Roundup
Issued by NWS

Home | Current Version | Previous Version | Text Only | Print | Product List | Glossary On
Versions: 1 2 3 4 5 6 7 8 9 10 11 12 13 14 15 16 17 18 19 20 21 22 23 24 25 26 27 28 29 30 31 32 33 34 35 36 37 38 39 40 41 42 43 44 45 46 47 48 49 50
000
ASUS43 KMKX 271221
RWRWI

WISCONSIN REGIONAL WEATHER ROUNDUP
NATIONAL WEATHER SERVICE MILWAUKEE/SULLIVAN WI
700 AM CDT THU JUL 27 2017

NOTE: "FAIR" INDICATES FEW OR NO CLOUDS BELOW 12,000 FEET WITH NO
SIGNIFICANT WEATHER AND/OR OBSTRUCTIONS TO VISIBILITY.

WIZ001-002-006>008-014>016-023>028-271300-
NORTHWEST WISCONSIN

CITY           SKY/WX    TMP DP  RH WIND       PRES   REMARKS
SUPERIOR ARPT  NOT AVBL
ASHLAND        SUNNY     59  57  93 SW5       30.07R
6HR MIN TEMP:  54; 6HR MAX TEMP:  61;

HAYWARD        SUNNY     57  56  96 NE3       30.08S
6HR MIN TEMP:  53; 6HR MAX TEMP:  60;

SIREN          SUNNY     59  57  95 CALM      30.08S
6HR MIN TEMP:  56; 6HR MAX TEMP:  62;

CUMBERLAND     SUNNY     61  59  94 CALM      30.08S
RICE LAKE      SUNNY     60  59  97 CALM      30.08S FOG
6HR MIN TEMP:  57; 6HR MAX TEMP:  62;

CHETEK         SUNNY     63  63 100 N6        30.06F
6HR MIN TEMP:  60; 6HR MAX TEMP:  63;

LADYSMITH      SUNNY     61  59  94 CALM      30.08S
6HR MIN TEMP:  57; 6HR MAX TEMP:  62;

EAU CLAIRE     SUNNY     64  62  93 CALM      30.04R
6HR MIN TEMP:  58; 6HR MAX TEMP:  64;

MENOMONIE      SUNNY     64  63  94 CALM      30.05S
6HR MIN TEMP:  61; 6HR MAX TEMP:  66;

NEW RICHMOND   SUNNY     62  62  99 CALM      30.07R
6HR MIN TEMP:  59; 6HR MAX TEMP:  63;

OSCEOLA        SUNNY     60  60 100 CALM      30.10R
6HR MIN TEMP:  56; 6HR MAX TEMP:  62;

$$

WIZ003>005-009-010-017-018-271300-
NORTH CENTRAL WISCONSIN

CITY           SKY/WX    TMP DP  RH WIND       PRES   REMARKS
MANITOWISH WTR SUNNY     60  60 100 CALM      30.08R
6HR MIN TEMP:  51; 6HR MAX TEMP:  58;

ARBOR VITAE    SUNNY     59  58  96 N5        30.07S
6HR MIN TEMP:  57; 6HR MAX TEMP:  59;

WOODRUFF       SUNNY     59  58  96 N5        30.07S
6HR MIN TEMP:  57; 6HR MAX TEMP:  59;

RHINELANDER    SUNNY     61  59  93 CALM      30.08R
6HR MIN TEMP:  52; 6HR MAX TEMP:  61;

EAGLE RIVER    SUNNY     58  58 100 CALM      30.07S
6HR MIN TEMP:  50; 6HR MAX TEMP:  58;

LAND O LAKES   SUNNY     60  57  91 CALM      30.10R
6HR MIN TEMP:  50; 6HR MAX TEMP:  56;

PHILLIPS       SUNNY     59  59  99 CALM      30.07S
6HR MIN TEMP:  53; 6HR MAX TEMP:  58;

TOMAHAWK         N/A     55  54  97 CALM      30.07S
6HR MIN TEMP:  49; 6HR MAX TEMP:  55;

MEDFORD        SUNNY     59  58  96 NE3       30.05S
6HR MIN TEMP:  54; 6HR MAX TEMP:  59;

MERRILL        SUNNY     57  57 100 CALM      30.06S
$$

WIZ029-030-035-036-043>047-271300-
CENTRAL WISCONSIN

CITY           SKY/WX    TMP DP  RH WIND       PRES   REMARKS
WAUSAU         SUNNY     62  60  93 NW3       30.03S
6HR MIN TEMP:  60; 6HR MAX TEMP:  66;

MOSINEE        SUNNY     63  61  94 N6        30.04S
MARSHFIELD     SUNNY     66  57  72 N8        30.04R
6HR MIN TEMP:  59; 6HR MAX TEMP:  66;

STEVENS POINT  SUNNY     60  58  95 CALM      30.04S
6HR MIN TEMP:  54; 6HR MAX TEMP:  62;

WAUPACA        SUNNY     64  63  94 N5        30.02R
6HR MIN TEMP:  63; 6HR MAX TEMP:  70;

WAUTOMA        SUNNY     66  62  87 NE6       30.02R
6HR MIN TEMP:  63; 6HR MAX TEMP:  67;

WISC RAPIDS    SUNNY     65  62  90 NE5       30.04R
6HR MIN TEMP:  58; 6HR MAX TEMP:  67;

CAMP DOUGLAS   SUNNY     63  63 100 W5        30.02R
$$

WIZ011>013-019>022-031-037>040-048>050-271300-
NORTHEAST WISCONSIN

CITY           SKY/WX    TMP DP  RH WIND       PRES   REMARKS
ANTIGO         SUNNY     59  58  96 N3        30.05F
6HR MIN TEMP:  52; 6HR MAX TEMP:  58;

SHAWANO        SUNNY     67  59  75 N5        30.02S
6HR MIN TEMP:  61; 6HR MAX TEMP:  71;

OCONTO         SUNNY     63  60  88 CALM      30.01S
6HR MIN TEMP:  58; 6HR MAX TEMP:  68;

STURGEON BAY     N/A     68  66  93 N5        30.01S
6HR MIN TEMP:  62; 6HR MAX TEMP:  70;

GREEN BAY      SUNNY     67  65  93 N5        30.00S
6HR MIN TEMP:  63; 6HR MAX TEMP:  70;

MANITOWOC      SUNNY     67  60  78 N5        30.00R
6HR MIN TEMP:  65; 6HR MAX TEMP:  71;

APPLETON       SUNNY     64  63  94 N7        30.00R
CLINTONVILLE   SUNNY    N/A N/A N/A CALM      30.03R
OSHKOSH        SUNNY     70  63  78 N5        29.99R
6HR MIN TEMP:  67; 6HR MAX TEMP:  71;

$$

WIZ032>034-041-042-053>061-271300-
SOUTHWEST WISCONSIN

CITY           SKY/WX    TMP DP  RH WIND       PRES   REMARKS
LA CROSSE      SUNNY     69  66  90 N6        30.02R
6HR MIN TEMP:  66; 6HR MAX TEMP:  72;

SPARTA         MOSUNNY   59  59 100 CALM      30.04S
6HR MIN TEMP:  54; 6HR MAX TEMP:  64;

VIROQUA        SUNNY     66  64  93 CALM      30.03S
6HR MIN TEMP:  64; 6HR MAX TEMP:  70;

BOSCOBEL       MOSUNNY   70  67  90 CALM      30.00R FOG
6HR MIN TEMP:  66; 6HR MAX TEMP:  71;

PRAIRIE DU CHI SUNNY     69  67  92 CALM      29.99S
6HR MIN TEMP:  68; 6HR MAX TEMP:  73;

PLATTEVILLE    SUNNY     69  69 100 NE6       30.00R
6HR MIN TEMP:  68; 6HR MAX TEMP:  70;

$$

WIZ056-057-062-063-064-067-068-271300-
SOUTH CENTRAL WISCONSIN

CITY           SKY/WX    TMP DP  RH WIND       PRES   REMARKS
REEDSBURG      SUNNY     66  66 100 CALM      30.01R
6HR MIN TEMP:  64; 6HR MAX TEMP:  69;

BARABOO/DELLS  SUNNY     65  64  95 CALM      30.01R
6HR MIN TEMP:  63; 6HR MAX TEMP:  69;

LONE ROCK      SUNNY     67  67 100 VRB3      29.99S
6HR MIN TEMP:  64; 6HR MAX TEMP:  70;

MINERAL POINT  CLOUDY    70  70 100 N7        30.00R FOG
MADISON        PTSUNNY   69  67  93 N6        29.98R
6HR MIN TEMP:  68; 6HR MAX TEMP:  70;

MIDDLETON      PTSUNNY   70  70 100 CALM      30.00S
6HR MIN TEMP:  66; 6HR MAX TEMP:  71;

WATERTOWN      CLOUDY    68  68 100 N6        29.98R FOG
6HR MIN TEMP:  65; 6HR MAX TEMP:  70;

MONROE         CLOUDY    70  68  94 N7        29.98S FOG
JANESVILLE     PTSUNNY   72  72 100 N7        29.96R FOG
$$

WIZ051-052-058>065-066-070>072-271300-
SOUTHEAST WISCONSIN

CITY           SKY/WX    TMP DP  RH WIND       PRES   REMARKS
MILWAUKEE      PTSUNNY   72  71  97 N7        29.95R FOG
6HR MIN TEMP:  70; 6HR MAX TEMP:  74;

WAUKESHA       CLOUDY    66  66 100 CALM      29.98S FOG
MILWAUKEE/TIMM CLOUDY    68  64  88 N7        29.98R FOG
RACINE         CLOUDY    71  70  96 NE8       29.97R FOG
6HR MIN TEMP:  70; 6HR MAX TEMP:  74;

KENOSHA        PTSUNNY   72  69  90 NE3       29.96R FOG
6HR MIN TEMP:  69; 6HR MAX TEMP:  74;

FOND DU LAC    SUNNY     70  58  65 NE8       29.99R
6HR MIN TEMP:  64; 6HR MAX TEMP:  70;

SHEBOYGAN      SUNNY     67  62  84 N7        29.98R
6HR MIN TEMP:  64; 6HR MAX TEMP:  71;

WEST BEND      MOSUNNY   68  66  94 NE6       29.98S
JUNEAU         MOSUNNY   67  67  98 N9        30.00R FOG
6HR MIN TEMP:  67; 6HR MAX TEMP:  70;

$$

LSZ147-162-271300-
LAKE SUPERIOR

STATION/POSITION TIME  TEMP    WIND        PRES    WAVE
                       AIR SEA DIR/SP/G            HT/PER
                 (UTC) (F)     (DEG/KT/KT) (MB)    (FT/S)
W MID LAKE BUOY  1150   57 52   10/  8/  8 1017.6R   0
DEVILS ISLAND    1200   65     250/  3/  3 1018.0R
PORT WING        0940   59     160/  2/  3 1017.9
SAXON HARBOR     1140   59     200/  2/  4 1017.3S
$$

LMZ867-665-643>646-271300-
LAKE MICHIGAN

STATION/POSITION TIME  TEMP    WIND        PRES    WAVE
                       AIR SEA DIR/SP/G            HT/PER
                 (UTC) (F)     (DEG/KT/KT) (MB)    (FT/S)
CHAMBERS ISLAND  1140   70     360/ 10/ 11 1015.6R
S GREEN BAY BUOY 1200   69 71  360/ 10/ 14 1015.8
N MID LAKE BUOY  1050   66 65  350/ 12/ 14 1015.7R   1/ 5
NORTHPORT PIER   1140   68     350/  8/ 12



USA.gov is the U.S. government's official web portal to all federal, state and local government web resources and services.